Regional Weather Roundup
Issued by NWS

Home | Current Version | Previous Version | Text Only | Print | Product List | Glossary On
Versions: 1 2 3 4 5 6 7 8 9 10 11 12 13 14 15 16 17 18 19 20 21 22 23 24 25 26 27 28 29 30 31 32 33 34 35 36 37 38 39 40 41 42 43 44 45 46 47 48 49 50
000
ASUS43 KOAX 221802
RWRNE

WEATHER ROUNDUP FOR NEBRASKA
NATIONAL WEATHER SERVICE OMAHA NE
100 PM CDT SUN OCT 22 2017

NOTES: SATELLITE DATA IS BEING USED TO AUGMENT CLOUD COVER ABOVE
       12000 FEET.
       "FAIR" INDICATES FEW OR NO CLOUDS BELOW 12,000 FEET WITH NO
       SIGNIFICANT WEATHER AND/OR OBSTRUCTIONS TO VISIBILITY.


NEZ001>004-019>022-054>056-221900-
NEBRASKA PANHANDLE

CITY           SKY/WX    TMP DP  RH WIND       PRES   REMARKS
SCOTTSBLUFF    SUNNY     66  28  24 W26G35    30.06F
6HR MIN TEMP:  31; 6HR MAX TEMP:  66;

ALLIANCE       SUNNY     64  27  24 W23G33    30.03F
6HR MIN TEMP:  26; 6HR MAX TEMP:  64;

CHADRON        SUNNY     67  24  19 W16G24    29.98F
6HR MIN TEMP:  25; 6HR MAX TEMP:  67;

GORDON         FAIR      62  27  26 W18G24    30.00F
6HR MIN TEMP:  31; 6HR MAX TEMP:  62;

KIMBALL        SUNNY     64  26  24 W21G29    30.13S
SIDNEY         SUNNY     66  26  22 W17G28    30.11F
6HR MIN TEMP:  26; 6HR MAX TEMP:  66;

$$

NEZ057>060-069>072-079>082-221900-
SOUTHWEST NEBRASKA

CITY           SKY/WX    TMP DP  RH WIND       PRES   REMARKS
NORTH PLATTE   SUNNY     64  27  24 SW14G25   30.08F
6HR MIN TEMP:  24; 6HR MAX TEMP:  64;

IMPERIAL       SUNNY     66  18  15 SW15G23   30.11F
6HR MIN TEMP:  29; 6HR MAX TEMP:  67;

LEXINGTON      SUNNY     64  27  25 SW14G22   30.11F
MCCOOK         SUNNY     66  23  19 SW17G28   30.13F
6HR MIN TEMP:  29; 6HR MAX TEMP:  66;

OGALLALA       SUNNY     65  24  21 SW13G20   30.09F
$$

NEZ005>010-023>029-035>040-094-221900-
NORTH CENTRAL NEBRASKA

CITY           SKY/WX    TMP DP  RH WIND       PRES   REMARKS
VALENTINE      SUNNY     65  26  23 W15G28    29.99S
6HR MIN TEMP:  29; 6HR MAX TEMP:  65;

AINSWORTH      SUNNY     62  28  27 SW23G30   30.01S
BROKEN BOW     SUNNY     63  30  28 W14       30.06F
6HR MIN TEMP:  26; 6HR MAX TEMP:  63;

O`NEILL        SUNNY     63  30  28 SW13      30.02F
ORD            SUNNY     63  25  23 SW15      30.04F
6HR MIN TEMP:  27; 6HR MAX TEMP:  63;

THEDFORD       SUNNY     64  29  26 W20G26    30.04F
$$

NEZ041-046>049-061>064-073>077-083>087-221900-
SOUTH CENTRAL NEBRASKA

CITY           SKY/WX    TMP DP  RH WIND       PRES   REMARKS
GRAND ISLAND   SUNNY     65  29  25 SW16G22   30.09F
6HR MIN TEMP:  32; 6HR MAX TEMP:  65;

AURORA         SUNNY     65  27  23 SW12      30.09F
HASTINGS       SUNNY     65  24  21 SW10      30.11F
6HR MIN TEMP:  35; 6HR MAX TEMP:  65;

HEBRON         SUNNY     67  28  23 SW12      30.12F
HOLDREGE       SUNNY     63  31  30 W15       30.11F
KEARNEY        SUNNY     64  26  23 W14       30.10F
YORK           SUNNY     66  27  22 SW13      30.10F
$$

NEZ011>018-030>034-042>045-221900-
NORTHEAST NEBRASKA

CITY           SKY/WX    TMP DP  RH WIND       PRES   REMARKS
NORFOLK        SUNNY     66  30  26 S21       30.03F
6HR MIN TEMP:  31; 6HR MAX TEMP:  66;

ALBION         SUNNY     65  30  27 SW15G21   30.06F
BLAIR          SUNNY     64  34  32 SW8       30.09F
COLUMBUS       SUNNY     66  31  27 SW13      30.08F
FREMONT        SUNNY     65  33  30 SW5       30.09F
TEKAMAH        SUNNY     66  28  24 VRB6      30.08F
6HR MIN TEMP:  37; 6HR MAX TEMP:  66;

WAYNE          SUNNY     64  27  25 SW13G20   30.05F
$$

NEZ050>053-065>068-078-088>093-221900-
SOUTHEAST NEBRASKA

CITY           SKY/WX    TMP DP  RH WIND       PRES   REMARKS
LINCOLN        SUNNY     66  30  26 SW12      30.12F
6HR MIN TEMP:  40; 6HR MAX TEMP:  66;

OMAHA EPPLEY   MOSUNNY   65  32  29 SW9       30.10F
6HR MIN TEMP:  42; 6HR MAX TEMP:  66;

BEATRICE       SUNNY     66  31  27 SW5       30.13F
FALLS CITY     SUNNY     65  35  33 NW7       30.12F
6HR MIN TEMP:  44; 6HR MAX TEMP:  65;

NEBRASKA CITY  SUNNY     65  35  33 NW6       30.11F
PLATTSMOUTH    SUNNY     65  33  30 W7        30.11F
$$

NEZ044-045-051>053-067-221900-
OMAHA AREA

CITY           SKY/WX    TMP DP  RH WIND       PRES   REMARKS
OMAHA EPPLEY   MOSUNNY   65  32  29 SW9       30.10F
6HR MIN TEMP:  42; 6HR MAX TEMP:  66;

BLAIR          SUNNY     64  34  32 SW8       30.09F
FREMONT        SUNNY     65  33  30 SW5       30.09F
MILLARD        SUNNY     64  36  34 W3        30.10F
OFFUTT AFB     SUNNY     65  35  33 SW6       30.10F
PLATTSMOUTH    SUNNY     65  33  30 W7        30.11F
WAHOO          FAIR      67  27  21 SW10      30.09F
$$



USA.gov is the U.S. government's official web portal to all federal, state and local government web resources and services.